User: anonymous   Login
Location: Azul
(36.7830°S, 59.8500°W)
Time: 09:10:15
(UTC-03:00)
Language:

STRAND 1 - Orbit

View from above orbital plane
View from above orbital plane
View from above satellite
View from above satellite

Ground track
Ground track

The orbit data is extracted from the following two-line orbital elements,

1 39090U 13009E   21294.45642769  .00000065  00000-0  37720-4 0  9999
2 39090  98.4175 133.6362 0008002 263.3482  96.6793 14.35192590453112
Epoch (UTC): 21 October 2021 10:57:15
Eccentricity: 0.0008002
inclination: 98.4175°
perigee height: 769 km
apogee height: 780 km
right ascension of ascending node: 133.6362°
argument of perigee: 263.3482°
revolutions per day: 14.35192590
mean anomaly at epoch: 96.6793°
orbit number at epoch: 45311

The dashed part of the orbit path shows where the satellite is in the earth's shadow,  

DLR